Find Starlink 37334

NORAD ID: 68700 Int'l Des: 2026-081 Owner: SPXS Country: US Constellation: starlink operational
LEOCIRCULAR

Aktuelle Ansicht

3D-Globus wird geladen...

Über Starlink 37334

Beschreibung wird geladen...

Nächste Überflüge

Passes for default location (London). Set your location on the main map for personalized predictions.

Höhenverlauf

Loading altitude history...

Zweizeiliger Elementsatz

1 68700U 26081B 26151.07294613 .00019504 00000-0 58693-3 0 9998
2 68700 53.1603 11.6077 0001042 98.3765 261.7356 15.34397377 7352
Epoch: 31. Mai 2026 • Age: 10 hours

Aktueller Status

Höhe 468.4 km
Geschwindigkeit 7.64 km/s
Subsatellitenpunkt 52.50°N, 24.64°E
Startdatum 14. Apr. 2026
Alter 0.1 years
Typ internet

Technische Details

Klassifizierung Payload
Masse 575.00 kg
Trockenmasse 530.00 kg
Gesamtmasse 575.00 kg
Länge 0.30 m
Durchmesser 4.10 m
Spannweite 29.00 m
Form Box + pan
Hersteller SPXS
Bus-Typ Starlink V2MO
Phasenstatus In Orbit
Besitzer/Staat SPXS/US

Most Searched